[[{"header":{"parameterUnit":"m.s-1","parameterCategory":1,"la1":30.2991,"la2":30.254,"lo1":-89.0895,"lo2":-89.0444,"dy":0.0017,"dx":0.0017,"nx":28,"ny":28,"refTime":"2023-08-27T21:00:00:Z","depth":0,"parameterNumber":2,"parameterNumberName":"U-component_of_WINDS"},"data":[0,0,0,0,0,0,0,0,0,0,0,0,0,0,0,0,0,0,0,0,0,0,0,0,0,0,0,0,0,0,0,0,0,0,0,0,0,0,0,0,0,0,0,0,0,0,0,0,0,0,0,0,0,0,0,0,0,0,-1.7058,-1.7059,0,-1.7144,-1.7145,-1.7146,-1.7107,-1.7105,-1.7102,-1.71,-1.7191,-1.7195,-1.72,0,0,0,0,0,0,0,0,0,0,0,0,0,-1.6863,-1.6867,-1.7058,-1.7059,-1.706,-1.7144,-1.7145,-1.7146,-1.7107,-1.7105,-1.7102,-1.7099,-1.719,-1.7195,-1.72,0,0,0,0,0,0,0,0,0,0,0,0,0,-1.6948,-1.6868,-1.7058,-1.7051,-1.7051,-1.7144,-1.7145,-1.7147,-1.7108,-1.7104,-1.7101,-1.7098,-1.7188,-1.7194,-1.7201,-1.7307,0,0,-1.7221,-1.7224,0,0,0,0,0,0,0,0,-1.6943,-1.6955,-1.7051,-1.7051,-1.7052,-1.7111,-1.7109,-1.72,-1.7109,-1.7086,-1.71,-1.7097,-1.7167,-1.7175,-1.7199,-1.7311,-1.7315,-1.7222,-1.7226,-1.7229,-1.7231,0,0,0,0,0,0,0,-1.6938,-1.6952,-1.7092,-1.7052,-1.7053,-1.7044,-1.7053,-1.7127,-1.7144,-1.7088,-1.7085,-1.7096,-1.7167,-1.7193,-1.7201,-1.7316,-1.7222,-1.7227,-1.7232,-1.7234,-1.752,-1.7524,0,0,0,0,0,0,-1.6931,-1.6947,-1.709,-1.7095,-1.6988,-1.705,-1.706,-1.7096,-1.7143,-1.7147,-1.7099,-1.7094,-1.7183,-1.7193,-1.7204,-1.7332,-1.7229,-1.7235,-1.7239,-1.7517,-1.7521,-1.7525,0,0,0,0,0,0,-1.6927,-1.6945,-1.7086,-1.702,-1.7037,-1.7057,-1.7098,-1.7099,-1.7124,-1.7151,-1.7154,-1.7121,-1.7181,-1.7194,-1.7281,-1.7334,-1.7238,-1.7244,-1.7512,-1.7518,-1.7523,-1.7588,0,0,0,0,0,0,-1.6922,-1.6943,-1.6983,-1.7021,-1.7041,-1.7162,-1.7101,-1.7103,-1.7136,-1.713,-1.7173,-1.7177,-1.7179,-1.7272,-1.7288,-1.7342,-1.7249,-1.7508,-1.7515,-1.7521,-1.7581,-1.7595,-1.7606,0,0,0,0,0,-1.6915,-1.6998,-1.6985,-1.7003,-1.7091,-1.7165,-1.7176,-1.7176,-1.714,-1.7181,-1.7198,-1.7176,-1.7325,-1.7281,-1.7299,-1.7355,-1.7505,-1.7513,-1.7521,-1.7575,-1.7592,-1.7606,0,0,0,0,0,0,-1.6967,-1.7003,-1.6989,-1.7087,-1.7123,-1.7158,-1.7209,-1.7194,-1.7241,-1.7234,-1.7233,-1.7243,-1.7333,-1.7353,-1.7303,-1.7461,-1.741,-1.7422,-1.7445,-1.7461,-1.7473,-1.7468,-1.7255,0,0,0,0,0,-1.6989,-1.7045,-1.7074,-1.7158,-1.7177,-1.719,-1.7222,-1.7219,-1.7256,-1.7272,-1.7295,-1.7333,-1.7389,-1.7426,-1.7478,-1.7583,-1.7593,-1.7631,-1.7643,-1.7654,-1.7665,-1.7723,-1.7741,-1.7552,-1.7552,-1.7552,0,0,-1.7037,-1.7064,-1.7099,-1.7169,-1.7196,-1.7256,-1.7203,-1.7268,-1.7312,-1.7282,-1.7366,-1.7384,-1.7427,-1.7523,-1.7567,-1.7542,-1.7719,-1.7664,-1.7672,-1.7678,-1.7733,-1.7751,-1.7767,-1.7557,-1.7556,-1.7555,0,0,-1.7154,-1.7179,-1.7252,-1.7281,-1.7323,-1.7331,-1.7349,-1.7386,-1.7397,-1.7481,-1.746,-1.7513,-1.7608,-1.764,-1.7668,-1.7797,-1.7779,-1.7814,-1.7882,-1.7938,-1.7953,-1.7966,-1.8014,-1.8031,-1.7825,-1.7825,-1.7825,0,-1.7209,-1.7296,-1.7292,-1.7359,-1.739,-1.7364,-1.7439,-1.7467,-1.7525,-1.7548,-1.7519,-1.7638,-1.7665,-1.777,-1.7801,-1.7824,-1.7846,-1.781,-1.7951,-1.7964,-1.7977,-1.8022,-1.804,-1.7829,-1.7829,-1.7828,-1.7828,0,-1.7361,-1.7422,-1.7476,-1.7532,-1.7569,-1.7639,-1.7647,-1.7686,-1.7679,-1.7691,-1.7777,-1.7808,-1.7867,-1.7891,-1.7885,-1.7995,-1.7979,-1.795,-1.7899,-1.7999,-1.8042,-1.8059,-1.7835,-1.7834,-1.7832,-1.7831,0,0,-1.7515,-1.7567,-1.7587,-1.7612,-1.7657,-1.7704,-1.7773,-1.783,-1.7864,-1.7904,-1.7963,-1.8045,-1.8019,-1.8051,-1.8049,-1.8098,-1.8201,-1.8064,-1.8065,-1.809,-1.8325,-1.8348,-1.8368,-1.8188,-1.8191,-1.8194,-1.8322,0,-1.7637,-1.7758,-1.7756,-1.7868,-1.7925,-1.7901,-1.7962,-1.7996,-1.8009,-1.806,-1.8074,-1.8132,-1.8093,-1.8113,-1.816,-1.8178,-1.8248,-1.8168,-1.8245,-1.8248,-1.8237,-1.839,-1.8413,-1.8533,-1.8339,-1.8342,-1.8344,0,-1.7796,-1.7841,-1.7958,-1.7995,-1.8018,-1.8073,-1.8125,-1.8173,-1.8212,-1.8218,-1.8254,-1.8244,-1.8315,-1.8261,-1.836,-1.8306,-1.8337,-1.8351,-1.8355,-1.8364,-1.8303,-1.8404,-1.8571,-1.859,-1.837,-1.8368,-1.8366,0,-1.7898,-1.7988,-1.807,-1.8092,-1.8136,-1.8175,-1.8196,-1.8231,-1.8265,-1.8311,-1.8334,-1.8387,-1.8417,-1.846,-1.8465,-1.8424,-1.8565,-1.8511,-1.8574,-1.8574,-1.8606,-1.8605,-1.8782,-1.8623,-1.8623,-1.8622,-1.8622,0,-1.8035,-1.8109,-1.8117,-1.8168,-1.825,-1.8247,-1.8329,-1.8345,-1.8377,-1.8432,-1.8414,-1.8466,-1.8468,-1.8522,-1.8526,-1.8609,-1.8622,-1.863,-1.863,-1.8633,-1.8632,-1.8654,-1.8647,-1.8627,-1.8626,-1.8625,-1.8624,0,-1.8165,-1.8173,-1.8261,-1.8295,-1.8305,-1.8364,-1.8394,-1.8443,-1.8453,-1.8523,-1.8539,-1.8556,-1.8618,-1.8627,-1.8699,-1.8702,-1.8802,-1.8793,-1.8789,-1.8789,-1.8852,-1.8846,-1.9052,-1.9079,-1.89,-1.8902,-1.8903,0,-1.8253,-1.8309,-1.8348,-1.8383,-1.8405,-1.8462,-1.8497,-1.8496,-1.8534,-1.8582,-1.8626,-1.8685,-1.8734,-1.8834,-1.8854,-1.8909,-1.8903,-1.8971,-1.8911,-1.8912,-1.8906,-1.8904,-1.891,-1.8983,-1.8985,-1.8987,-1.8988,0,-1.8409,-1.841,-1.846,-1.8513,-1.8554,-1.8596,-1.8634,-1.8664,-1.8669,-1.8712,-1.8774,-1.8812,-1.8886,-1.8946,-1.9001,-1.9023,-1.9008,-1.9006,-1.9024,-1.9028,-1.9024,-1.9029,-1.8823,-1.9002,-1.9001,-1.8999,-1.8999,-1.8998,-1.8522,-1.8571,-1.8606,-1.8663,-1.8692,-1.8729,-1.8777,-1.8793,-1.8845,-1.8904,-1.8901,-1.8971,-1.9008,-1.9081,-1.9106,-1.9162,-1.914,-1.9165,-1.9172,-1.9179,-1.9186,-1.9013,-1.9171,-1.9171,-1.9171,-1.917,-1.917,0,-1.8679,-1.87,-1.8752,-1.8807,-1.8852,-1.8831,-1.8873,-1.8912,-1.8973,-1.9009,-1.9057,-1.913,-1.9188,-1.9212,-1.927,-1.9309,-1.9304,-1.9325,-1.9323,-1.9329,-1.9201,-1.9181,-1.9328,-1.9328,-1.9328,-1.9328,-1.9328,-1.9328,-1.8766,-1.8848,-1.8853,-1.8949,-1.8971,-1.9038,-1.9064,-1.9098,-1.9127,-1.9208,-1.9257,-1.9271,-1.9303,-1.9363,-1.9416,-1.9421,-1.9444,-1.9469,-1.9472,-1.9353,-1.9337,-1.9322,-1.9303,-1.9474,-1.9474,-1.9595,-1.9596,-1.9597]},{"header":{"parameterUnit":"m.s-1","parameterCategory":1,"la1":30.2991,"la2":30.254,"lo1":-89.0895,"lo2":-89.0444,"dy":0.0017,"dx":0.0017,"nx":28,"ny":28,"refTime":"2023-08-27T21:00:00:Z","depth":0,"parameterNumber":3,"parameterNumberName":"V-component_of_WINDS"},"data":[0,0,0,0,0,0,0,0,0,0,0,0,0,0,0,0,0,0,0,0,0,0,0,0,0,0,0,0,0,0,0,0,0,0,0,0,0,0,0,0,0,0,0,0,0,0,0,0,0,0,0,0,0,0,0,0,0,0,-3.3446,-3.3447,0,-3.3528,-3.3529,-3.353,-3.3503,-3.3501,-3.35,-3.3498,-3.3576,-3.358,-3.3583,0,0,0,0,0,0,0,0,0,0,0,0,0,-3.3261,-3.3265,-3.3446,-3.3447,-3.3448,-3.3528,-3.3529,-3.353,-3.3503,-3.3501,-3.3499,-3.3497,-3.3575,-3.3579,-3.3584,0,0,0,0,0,0,0,0,0,0,0,0,0,-3.3342,-3.3266,-3.3446,-3.3445,-3.3445,-3.3528,-3.3529,-3.353,-3.3504,-3.3501,-3.3499,-3.3496,-3.3573,-3.3579,-3.3584,-3.3671,0,0,-3.3601,-3.3604,0,0,0,0,0,0,0,0,-3.3338,-3.3349,-3.3444,-3.3445,-3.3446,-3.3503,-3.3492,-3.3577,-3.3504,-3.3481,-3.3498,-3.3495,-3.3553,-3.356,-3.3581,-3.3675,-3.3678,-3.3602,-3.3605,-3.3608,-3.3609,0,0,0,0,0,0,0,-3.3332,-3.3345,-3.3478,-3.3445,-3.3446,-3.3438,-3.3447,-3.3508,-3.3531,-3.3483,-3.3482,-3.3492,-3.3553,-3.3576,-3.3583,-3.3679,-3.3602,-3.3607,-3.361,-3.3612,-3.3847,-3.385,0,0,0,0,0,0,-3.3327,-3.3341,-3.3476,-3.3481,-3.3384,-3.3444,-3.3453,-3.3487,-3.353,-3.3534,-3.3494,-3.349,-3.3568,-3.3577,-3.3586,-3.369,-3.3607,-3.3613,-3.3616,-3.3844,-3.3848,-3.3851,0,0,0,0,0,0,-3.3323,-3.3339,-3.3472,-3.341,-3.3427,-3.345,-3.3488,-3.349,-3.3513,-3.3539,-3.3542,-3.3513,-3.3566,-3.3578,-3.365,-3.3692,-3.3615,-3.362,-3.3841,-3.3846,-3.385,-3.3899,0,0,0,0,0,0,-3.3318,-3.3338,-3.3372,-3.3411,-3.343,-3.3538,-3.349,-3.3493,-3.3523,-3.3519,-3.3558,-3.3561,-3.3565,-3.3642,-3.3656,-3.3699,-3.3625,-3.3837,-3.3843,-3.3848,-3.3894,-3.3905,-3.3914,0,0,0,0,0,-3.3311,-3.3382,-3.3374,-3.339,-3.3474,-3.354,-3.355,-3.3555,-3.3527,-3.3561,-3.3577,-3.356,-3.3686,-3.365,-3.3665,-3.371,-3.3835,-3.3841,-3.3848,-3.389,-3.3903,-3.3914,0,0,0,0,0,0,-3.3344,-3.3387,-3.3379,-3.3465,-3.3499,-3.3535,-3.3578,-3.3569,-3.3611,-3.3605,-3.3607,-3.3616,-3.369,-3.3707,-3.3667,-3.3796,-3.3756,-3.3766,-3.3782,-3.3795,-3.3805,-3.3799,-3.3629,0,0,0,0,0,-3.3362,-3.3414,-3.3447,-3.352,-3.3538,-3.3555,-3.3584,-3.3585,-3.362,-3.3634,-3.3655,-3.3689,-3.3736,-3.3766,-3.3811,-3.3897,-3.3904,-3.3935,-3.3945,-3.3953,-3.3961,-3.4008,-3.4022,-3.3873,-3.3873,-3.3873,0,0,-3.3398,-3.3428,-3.346,-3.3527,-3.3554,-3.3606,-3.3568,-3.3624,-3.3662,-3.3642,-3.3712,-3.3729,-3.3766,-3.3846,-3.3882,-3.3862,-3.4004,-3.3962,-3.3968,-3.3972,-3.4016,-3.403,-3.4043,-3.3877,-3.3876,-3.3876,0,0,-3.3491,-3.352,-3.3583,-3.3611,-3.3653,-3.3665,-3.368,-3.3718,-3.3729,-3.3801,-3.3786,-3.383,-3.3911,-3.3938,-3.3963,-3.4067,-3.4052,-3.4081,-3.4133,-3.4179,-3.419,-3.4201,-3.4237,-3.4251,-3.4089,-3.409,-3.409,0,-3.3531,-3.3611,-3.3616,-3.3675,-3.3704,-3.369,-3.3754,-3.378,-3.3833,-3.3853,-3.3831,-3.3933,-3.3957,-3.4042,-3.4068,-3.4088,-3.4105,-3.4076,-3.4189,-3.4199,-3.4209,-3.4244,-3.4258,-3.4093,-3.4092,-3.4092,-3.4092,0,-3.3657,-3.3712,-3.3758,-3.3813,-3.3847,-3.3908,-3.3921,-3.3955,-3.3953,-3.3966,-3.4038,-3.4067,-3.4117,-3.4137,-3.4134,-3.4223,-3.4209,-3.4188,-3.4147,-3.4226,-3.4259,-3.4272,-3.4097,-3.4096,-3.4095,-3.4094,0,0,-3.3772,-3.383,-3.3847,-3.3872,-3.3917,-3.3959,-3.4019,-3.407,-3.4099,-3.4136,-3.4185,-3.4254,-3.4235,-3.4263,-3.4263,-3.4303,-3.4383,-3.4277,-3.4277,-3.4295,-3.4481,-3.4497,-3.4513,-3.4374,-3.4377,-3.4379,-3.4478,0,-3.3869,-3.3976,-3.3983,-3.4079,-3.4129,-3.4117,-3.4169,-3.4201,-3.4215,-3.4259,-3.4273,-3.4322,-3.4294,-3.431,-3.4349,-3.4365,-3.4421,-3.4358,-3.4418,-3.4421,-3.441,-3.453,-3.4546,-3.4639,-3.4491,-3.4493,-3.4495,0,-3.3995,-3.4039,-3.4141,-3.418,-3.4201,-3.4248,-3.4296,-3.4338,-3.4374,-3.4382,-3.4413,-3.4408,-3.4467,-3.4425,-3.4506,-3.4464,-3.4489,-3.4501,-3.4504,-3.451,-3.4462,-3.4538,-3.4668,-3.4682,-3.4515,-3.4514,-3.4512,0,-3.4069,-3.4153,-3.4225,-3.4247,-3.4294,-3.4327,-3.4348,-3.4382,-3.4412,-3.4453,-3.4472,-3.4519,-3.4544,-3.458,-3.4586,-3.4555,-3.4668,-3.4626,-3.4674,-3.4674,-3.4698,-3.4696,-3.4834,-3.4715,-3.4714,-3.4714,-3.4714,0,-3.4176,-3.4239,-3.4259,-3.4303,-3.4373,-3.4379,-3.4447,-3.4465,-3.4496,-3.4542,-3.4533,-3.4577,-3.4584,-3.4628,-3.4633,-3.4699,-3.4711,-3.4717,-3.4718,-3.4718,-3.4717,-3.4734,-3.4728,-3.4718,-3.4717,-3.4716,-3.4716,0,-3.427,-3.4286,-3.4364,-3.4403,-3.4414,-3.4464,-3.4496,-3.4538,-3.4551,-3.4609,-3.4623,-3.4644,-3.4696,-3.4706,-3.4767,-3.4771,-3.4849,-3.4844,-3.4838,-3.4837,-3.4884,-3.488,-3.5037,-3.5058,-3.4926,-3.4927,-3.4928,0,-3.4337,-3.4385,-3.443,-3.4462,-3.4485,-3.4535,-3.4567,-3.4575,-3.4608,-3.4653,-3.4689,-3.474,-3.4782,-3.4865,-3.4884,-3.493,-3.4925,-3.4977,-3.4932,-3.493,-3.4925,-3.4923,-3.4927,-3.4985,-3.4987,-3.4988,-3.4989,0,-3.4454,-3.446,-3.4507,-3.4557,-3.4596,-3.4635,-3.4672,-3.4698,-3.4711,-3.4748,-3.4802,-3.4835,-3.4898,-3.4948,-3.4995,-3.5014,-3.5004,-3.5003,-3.5017,-3.5017,-3.5012,-3.5015,-3.4861,-3.4999,-3.4998,-3.4998,-3.4997,-3.4997,-3.4536,-3.4578,-3.4617,-3.467,-3.4699,-3.4735,-3.4776,-3.4795,-3.4841,-3.4895,-3.4896,-3.4955,-3.4989,-3.5051,-3.5074,-3.5119,-3.5102,-3.5122,-3.5126,-3.5131,-3.5136,-3.5005,-3.5127,-3.5127,-3.5126,-3.5126,-3.5126,0,-3.4652,-3.4677,-3.4726,-3.4779,-3.482,-3.4809,-3.485,-3.4885,-3.4937,-3.4972,-3.5013,-3.5075,-3.5124,-3.5148,-3.5196,-3.5227,-3.5224,-3.524,-3.5237,-3.5242,-3.5148,-3.5131,-3.5242,-3.5242,-3.5242,-3.5242,-3.5242,-3.5242,-3.4718,-3.4789,-3.48,-3.4885,-3.4909,-3.4968,-3.4992,-3.5024,-3.5052,-3.5122,-3.5164,-3.518,-3.5209,-3.526,-3.5304,-3.5309,-3.5327,-3.5346,-3.5349,-3.526,-3.5248,-3.5237,-3.5222,-3.5349,-3.535,-3.5439,-3.544,-3.544]}]]